Flag for U.S.A. Weather past 2 weeks in San Francisco, California, U.S.A.

Now
63 °F

Scattered clouds.


Feels Like: 63 °F
Forecast: 48 / 61 °F
Wind: 10 mph from West

Location: San Francisco International Airport

Current Time: Jan 29, 2015 at 4:54:00 PM

Latest Report: Jan 29, 2015 at 3:56 PM


Visibility: 10 mi

Pressure: 30.07 "Hg

Humidity: 65%

Dew point: 51 °F

Location of San FranciscoLocation

Historic Weather in San Francisco — Graph

°F

San Francisco temperature yesterday

Maximum temperature yesterday: 63 °F (at 2:56 PM)
Minimum temperature yesterday: 50 °F (at 4:56 AM)
Average temperature yesterday: 56 °F

Past Weeks' High & Low Weather Summary

 TemperatureHumidityPressure
High68 °F (Jan 27, 1:56 PM)100% (Jan 15, 5:56 AM)30.37 "Hg (Jan 15, 5:56 AM)
Low46 °F (Jan 15, 3:56 AM)43% (Jan 21, 2:56 PM)29.96 "Hg (Jan 26, 2:56 PM)
Average55 °F85%30.19 "Hg
* Reported Jan 14 2:56 PM — Jan 29 2:56 PM, San Francisco, Weather by CustomWeather, © 2014

Note: Actual official high and low records may vary slightly from our data, if they occured in-between our weather recording intervals... More about our weather records

Advertising

San Francisco weather history for previous 24 hours

 ConditionsComfort  
Time TempWeatherWind HumidityBarometerVisibility
2:56 PM
Jan 29
64 °FPassing clouds.14 mph68%30.07 "Hg10 mi
1:56 PM65 °FPassing clouds.No wind63%30.08 "Hg10 mi
12:56 PM62 °FPassing clouds.No wind70%30.10 "Hg9 mi
11:56 AM58 °FPassing clouds.No wind87%30.14 "Hg8 mi
10:56 AM58 °FPassing clouds.No wind81%30.16 "Hg7 mi
9:56 AM56 °FFog.No wind90%30.16 "Hg3 mi
8:56 AM54 °FFog.No wind97%30.16 "Hg4 mi
7:56 AM53 °FFog.No wind100%30.15 "Hg3 mi
6:56 AM53 °FFog.No wind100%30.14 "Hg3 mi
5:56 AM53 °FFog.No wind100%30.14 "Hg6 mi
5:03 AM50 °FLow clouds.No wind94%30.14 "Hg10 mi
4:56 AM50 °FPassing clouds.No wind100%30.13 "Hg10 mi
3:56 AM51 °FPassing clouds.No wind92%30.14 "Hg10 mi
2:56 AM51 °FPassing clouds.No wind96%30.15 "Hg10 mi
1:56 AM51 °FPassing clouds.3 mph100%30.16 "Hg10 mi
12:56 AM54 °FPassing clouds.No wind97%30.16 "Hg10 mi
11:56 PM
Jan 28
55 °FPassing clouds.8 mph96%30.16 "Hg10 mi
10:56 PM56 °FPassing clouds.9 mph97%30.16 "Hg10 mi
9:56 PM56 °FPassing clouds.8 mph93%30.17 "Hg10 mi
8:56 PM57 °FPassing clouds.9 mph93%30.16 "Hg10 mi
7:56 PM57 °FPassing clouds.9 mph93%30.17 "Hg10 mi
6:56 PM58 °FPassing clouds.13 mph90%30.17 "Hg10 mi
5:56 PM59 °FPassing clouds.10 mph78%30.17 "Hg10 mi
4:56 PM61 °FPartly sunny.12 mph70%30.16 "Hg10 mi
Weather by CustomWeather, © 2014

See weather overviewHow to use our weather pages